Showing default

CHINASAT 19, 54230

Orbit data source: Space-Track

CHINASAT 19, 54230 is a payload satellite owned by China Satcom (CN) in GEO that was launched on Sat, 05 Nov 2022 UTC via a CHANG ZHENG 3B launch vehicle from the Xichang Space Center, China (XSC). Payload-class satellites include a variety of spacecraft equipped with specific instruments for various scientific and technological missions. These include communications satellites like Starlink; space stations such as the ISS; scientific satellites like the Hubble; Earth observation satellites from companies like Planet Labs, Umbra, and HawkEye 360; GPS; miniature CubeSats for education and research; and military/defense satellites.

Not visible in the next 10 days
Identifier
54230, 2022-148A
Orbit
GEO
Country
Flag of CNCN / PRC
Related business
Manufacturer
CAST?
Mission
Operational Civil Communications
Bus & Motor
DFH-4?, DFH-4 LAE
Mass
~5,250 kg wet, ~2,500 kg dry
Launch date (UTC)
2022-11-05 (4 years ago)
Launch vehicle
CHANG ZHENG 3B
Launch site
Xichang Space Center, China (XSC)
Object type
Payload
Rocket body
Debris
Shape & HBR
Box + 2 Pan, 15.0 m
Radar Cross Section
34.063 m², Large (>1 m²)

Expand to show TLE details & history
Last TLE update: 23 hours ago

TLE from 23 hours ago
0 CHINASAT 19
1 54230U 22148A   26172.50531091 -.00000083  00000-0  00000+0 0  9994
2 54230   0.0171  64.7588 0002531  46.9675 143.0775  1.00272048 13422
Epoch: 2026-06-21T12:07Z
TLE epoch observation values (Epoch: 2026-06-21T12:07:38.862Z)
Latitude
-0.01533°
Longitude
163.21545°
Altitude
35,794.59 km
Speed
3.074 km/s
True Right ascension
16h 59m 19s
True Declination
0° 00' 55"
Sunlit
Object was in daylight at epoch
Visualization orbit readout
Latitude
Unknown
Longitude
Unknown
Altitude
Unknown
Speed
Unknown
Apparent Right ascension
Unknown
Apparent Declination
Unknown
Sunlit
N/A
Visualization observer readout
Local Sidereal Time
21:56:21
Azimuth
Unknown
Elevation
Unknown
Doppler factor
Unknown
Orbital elements
Apogee altitude
35,798.264 km
Perigee altitude
35,776.919 km
Semi-major axis
42,165.729 km
Eccentricity
0.00025
Inclination
0.0171°
RAAN
64.7588°
Arg. of periapsis
46.9675°
True anomaly
143.09492°
Mean anomaly
143.0775°
Eccentric anomaly
143.08621°
Mean motion
0.25067 °/min
Orbital period
1,436.15 mins
BSTAR
0
Loading maneuver chart data...
Computing Atmospheric mass density...
Loading historical data...
Loading historical data...
Loading historical data...
Loading historical data...
Loading historical data...
Loading historical data...
Loading historical data...
Other satellites on launch #148 in the year 2022 (2022-11-05 UTC)

Documentation

Showing up to 5 results
|